Time,TemperatureF,DewpointF,PressureIn,WindDirection,WindDirectionDegrees,WindSpeedMPH,WindSpeedGustMPH,Humidity,HourlyPrecipIn,Conditions,Clouds,dailyrainin,SolarRadiationWatts/m^2,SoftwareType,DateUTC
2013-09-03 00:04:00,71.0,70.0,-100.00,SW,228,4.0,8.0,98,0.00,,,0.57,0.000000,,2013-09-03 04:04:00,
2013-09-03 00:14:00,71.0,70.0,-100.00,SW,228,4.0,8.0,98,0.00,,,0.57,0.000000,,2013-09-03 04:14:00,
2013-09-03 00:53:00,71.0,70.0,-100.00,SW,214,2.0,7.0,98,0.00,,,0.57,1.000000,,2013-09-03 04:53:00,
2013-09-03 01:03:00,71.0,70.0,-100.00,SW,214,2.0,7.0,98,0.00,,,0.57,1.000000,,2013-09-03 05:03:00,
2013-09-03 01:12:00,71.0,70.0,-100.00,SW,214,2.0,7.0,98,0.00,,,0.57,1.000000,,2013-09-03 05:12:00,
2013-09-03 01:23:00,71.0,70.0,-100.00,SW,214,2.0,7.0,98,0.00,,,0.57,1.000000,,2013-09-03 05:23:00,
2013-09-03 01:52:00,70.0,69.0,-100.00,SW,229,2.0,6.0,98,0.00,,,0.57,1.000000,,2013-09-03 05:52:00,
2013-09-03 02:02:00,70.0,69.0,-100.00,SW,229,2.0,6.0,98,0.00,,,0.57,1.000000,,2013-09-03 06:02:00,
2013-09-03 02:12:00,70.0,69.0,-100.00,SW,229,2.0,6.0,98,0.00,,,0.57,1.000000,,2013-09-03 06:12:00,
2013-09-03 02:22:00,70.0,69.0,-100.00,SW,229,2.0,6.0,98,0.00,,,0.57,1.000000,,2013-09-03 06:22:00,
2013-09-03 02:52:00,70.0,69.0,-100.00,SW,224,5.0,9.0,98,0.00,,,0.57,1.000000,,2013-09-03 06:52:00,
2013-09-03 03:02:00,70.0,69.0,-100.00,SW,224,5.0,9.0,98,0.00,,,0.57,1.000000,,2013-09-03 07:02:00,
2013-09-03 03:12:00,70.0,69.0,-100.00,SW,224,5.0,9.0,98,0.00,,,0.57,1.000000,,2013-09-03 07:12:00,
2013-09-03 03:22:00,70.0,69.0,-100.00,SW,224,5.0,9.0,98,0.00,,,0.57,1.000000,,2013-09-03 07:22:00,
2013-09-03 03:53:00,69.0,68.0,-100.00,SW,215,4.0,8.0,98,0.00,,,0.57,1.000000,,2013-09-03 07:53:00,
2013-09-03 04:03:00,69.0,68.0,-100.00,SW,215,4.0,8.0,98,0.00,,,0.57,1.000000,,2013-09-03 08:03:00,
2013-09-03 04:11:00,69.0,68.0,-100.00,SW,215,4.0,8.0,98,0.00,,,0.57,1.000000,,2013-09-03 08:11:00,
2013-09-03 04:22:00,69.0,68.0,-100.00,SW,215,4.0,8.0,98,0.00,,,0.57,1.000000,,2013-09-03 08:22:00,
2013-09-03 04:52:00,69.0,69.0,-100.00,SW,223,4.0,7.0,99,0.00,,,0.56,1.000000,,2013-09-03 08:52:00,
2013-09-03 05:02:00,69.0,69.0,-100.00,SW,223,4.0,7.0,99,0.00,,,0.56,1.000000,,2013-09-03 09:02:00,
2013-09-03 05:12:00,69.0,69.0,-100.00,SW,223,4.0,7.0,99,0.00,,,0.56,1.000000,,2013-09-03 09:12:00,
2013-09-03 05:22:00,69.0,69.0,-100.00,SW,223,4.0,7.0,99,0.00,,,0.56,1.000000,,2013-09-03 09:22:00,
2013-09-03 05:53:00,69.0,69.0,-100.00,WSW,256,3.0,7.0,99,0.00,,,0.03,1.000000,,2013-09-03 09:53:00,
2013-09-03 06:03:00,69.0,69.0,-100.00,WSW,256,3.0,7.0,99,0.00,,,0.03,1.000000,,2013-09-03 10:03:00,
2013-09-03 06:13:00,69.0,69.0,-100.00,WSW,256,3.0,7.0,99,0.00,,,0.03,1.000000,,2013-09-03 10:13:00,
2013-09-03 06:23:00,69.0,69.0,-100.00,WSW,256,3.0,7.0,99,0.00,,,0.03,1.000000,,2013-09-03 10:23:00,
2013-09-03 06:53:00,69.0,69.0,-100.00,SSW,192,1.0,5.0,99,0.00,,,0.03,1.000000,,2013-09-03 10:53:00,
2013-09-03 07:03:00,69.0,69.0,-100.00,SSW,192,1.0,5.0,99,0.00,,,0.03,1.000000,,2013-09-03 11:03:00,
2013-09-03 07:12:00,69.0,69.0,-100.00,SSW,192,1.0,5.0,99,0.00,,,0.03,1.000000,,2013-09-03 11:12:00,
2013-09-03 07:23:00,69.0,69.0,-100.00,SSW,192,1.0,5.0,99,0.00,,,0.03,1.000000,,2013-09-03 11:23:00,
2013-09-03 07:52:00,70.0,70.0,-100.00,WSW,237,0.0,4.0,99,0.00,,,0.03,22.000000,,2013-09-03 11:52:00,
2013-09-03 08:02:00,70.0,70.0,-100.00,WSW,237,0.0,4.0,99,0.00,,,0.03,22.000000,,2013-09-03 12:02:00,
2013-09-03 08:12:00,70.0,70.0,-100.00,WSW,237,0.0,4.0,99,0.00,,,0.03,22.000000,,2013-09-03 12:12:00,
2013-09-03 08:22:00,70.0,70.0,-100.00,WSW,237,0.0,4.0,99,0.00,,,0.03,22.000000,,2013-09-03 12:22:00,
2013-09-03 08:52:00,70.0,69.0,-100.00,SSE,159,3.0,5.0,98,0.00,,,0.03,97.000000,,2013-09-03 12:52:00,
2013-09-03 09:02:00,70.0,69.0,-100.00,SSE,159,3.0,5.0,98,0.00,,,0.03,97.000000,,2013-09-03 13:02:00,
2013-09-03 09:11:00,70.0,69.0,-100.00,SSE,159,3.0,5.0,98,0.00,,,0.03,97.000000,,2013-09-03 13:11:00,
2013-09-03 09:22:00,70.0,69.0,-100.00,SSE,159,3.0,5.0,98,0.00,,,0.03,97.000000,,2013-09-03 13:22:00,
2013-09-03 09:52:00,71.0,70.0,-100.00,SSW,196,4.0,6.0,98,0.00,,,0.03,178.000000,,2013-09-03 13:52:00,
2013-09-03 10:02:00,71.0,70.0,-100.00,SSW,196,4.0,6.0,98,0.00,,,0.03,178.000000,,2013-09-03 14:02:00,
2013-09-03 10:11:00,71.0,70.0,-100.00,SSW,196,4.0,6.0,98,0.00,,,0.03,178.000000,,2013-09-03 14:11:00,
2013-09-03 10:21:00,71.0,70.0,-100.00,SSW,196,4.0,6.0,98,0.00,,,0.03,178.000000,,2013-09-03 14:21:00,
2013-09-03 10:52:00,73.0,72.0,-100.00,SSW,210,5.0,8.0,96,0.00,,,0.03,231.000000,,2013-09-03 14:52:00,
2013-09-03 11:02:00,73.0,72.0,-100.00,SSW,210,5.0,8.0,96,0.00,,,0.03,231.000000,,2013-09-03 15:02:00,
2013-09-03 11:22:00,73.0,72.0,-100.00,SSW,210,5.0,8.0,96,0.00,,,0.03,231.000000,,2013-09-03 15:22:00,
2013-09-03 11:54:00,72.0,70.0,-100.00,East,96,3.0,7.0,94,0.00,,,0.03,210.000000,,2013-09-03 15:54:00,
2013-09-03 12:04:00,72.0,70.0,-100.00,East,96,3.0,7.0,94,0.00,,,0.03,210.000000,,2013-09-03 16:04:00,
2013-09-03 12:14:00,72.0,70.0,-100.00,East,96,3.0,7.0,94,0.00,,,0.03,210.000000,,2013-09-03 16:14:00,
2013-09-03 12:24:00,72.0,70.0,-100.00,East,96,3.0,7.0,94,0.00,,,0.03,210.000000,,2013-09-03 16:24:00,
2013-09-03 12:54:00,71.0,70.0,-100.00,South,180,5.0,9.0,96,0.01,,,0.04,107.000000,,2013-09-03 16:54:00,
2013-09-03 13:03:00,71.0,70.0,-100.00,South,180,5.0,9.0,96,0.01,,,0.04,107.000000,,2013-09-03 17:03:00,
2013-09-03 13:13:00,71.0,70.0,-100.00,South,180,5.0,9.0,96,0.01,,,0.04,107.000000,,2013-09-03 17:13:00,
2013-09-03 13:23:00,71.0,70.0,-100.00,South,180,5.0,9.0,96,0.01,,,0.04,107.000000,,2013-09-03 17:23:00,
2013-09-03 13:52:00,70.0,69.0,-100.00,SSW,204,3.0,9.0,98,0.09,,,0.13,16.000000,,2013-09-03 17:52:00,
2013-09-03 14:02:00,70.0,69.0,-100.00,SSW,204,3.0,9.0,98,0.09,,,0.13,16.000000,,2013-09-03 18:02:00,
2013-09-03 14:12:00,70.0,69.0,-100.00,SSW,204,3.0,9.0,98,0.09,,,0.13,16.000000,,2013-09-03 18:12:00,
2013-09-03 14:22:00,70.0,69.0,-100.00,SSW,204,3.0,9.0,98,0.09,,,0.13,16.000000,,2013-09-03 18:22:00,
2013-09-03 14:52:00,68.0,67.0,-100.00,WNW,294,4.0,9.0,98,0.11,,,0.21,17.000000,,2013-09-03 18:52:00,
2013-09-03 15:02:00,68.0,67.0,-100.00,WNW,294,4.0,9.0,98,0.11,,,0.21,17.000000,,2013-09-03 19:02:00,
2013-09-03 15:11:00,68.0,67.0,-100.00,WNW,294,4.0,9.0,98,0.11,,,0.21,17.000000,,2013-09-03 19:11:00,
2013-09-03 15:22:00,68.0,67.0,-100.00,WNW,294,4.0,9.0,98,0.11,,,0.21,17.000000,,2013-09-03 19:22:00,
2013-09-03 15:52:00,67.0,66.0,-100.00,NNE,20,2.0,13.0,97,0.33,,,0.54,6.000000,,2013-09-03 19:52:00,
2013-09-03 16:02:00,67.0,66.0,-100.00,NNE,20,2.0,13.0,97,0.33,,,0.54,6.000000,,2013-09-03 20:02:00,
2013-09-03 16:11:00,67.0,66.0,-100.00,NNE,20,2.0,13.0,97,0.33,,,0.54,6.000000,,2013-09-03 20:11:00,
2013-09-03 16:22:00,67.0,66.0,-100.00,NNE,20,2.0,13.0,97,0.33,,,0.54,6.000000,,2013-09-03 20:22:00,
2013-09-03 16:53:00,68.0,67.0,-100.00,ENE,64,4.0,5.0,98,0.23,,,0.77,29.000000,,2013-09-03 20:53:00,
2013-09-03 17:02:00,68.0,67.0,-100.00,ENE,64,4.0,5.0,98,0.23,,,0.77,29.000000,,2013-09-03 21:02:00,
2013-09-03 17:12:00,68.0,67.0,-100.00,ENE,64,4.0,5.0,98,0.23,,,0.77,29.000000,,2013-09-03 21:12:00,
2013-09-03 17:22:00,68.0,67.0,-100.00,ENE,64,4.0,5.0,98,0.23,,,0.77,29.000000,,2013-09-03 21:22:00,
2013-09-03 17:54:00,69.0,68.0,-100.00,West,278,1.0,5.0,98,0.45,,,1.22,35.000000,,2013-09-03 21:54:00,
2013-09-03 18:04:00,69.0,68.0,-100.00,West,278,1.0,5.0,98,0.45,,,1.22,35.000000,,2013-09-03 22:04:00,
2013-09-03 18:13:00,69.0,68.0,-100.00,West,278,1.0,5.0,98,0.45,,,1.22,35.000000,,2013-09-03 22:13:00,
2013-09-03 18:23:00,69.0,68.0,-100.00,West,278,1.0,5.0,98,0.45,,,1.22,35.000000,,2013-09-03 22:23:00,
2013-09-03 18:53:00,69.0,68.0,-100.00,WSW,245,0.0,3.0,98,0.00,,,1.22,14.000000,,2013-09-03 22:53:00,
2013-09-03 19:04:00,69.0,68.0,-100.00,WSW,245,0.0,3.0,98,0.00,,,1.22,14.000000,,2013-09-03 23:04:00,
2013-09-03 19:12:00,69.0,68.0,-100.00,WSW,245,0.0,3.0,98,0.00,,,1.22,14.000000,,2013-09-03 23:12:00,
2013-09-03 19:23:00,69.0,68.0,-100.00,WSW,245,0.0,3.0,98,0.00,,,1.22,14.000000,,2013-09-03 23:23:00,
2013-09-03 19:54:00,70.0,69.0,-100.00,WSW,242,3.0,5.0,98,0.00,,,1.22,10.000000,,2013-09-03 23:54:00,
2013-09-03 20:02:00,70.0,69.0,-100.00,WSW,242,3.0,5.0,98,0.00,,,1.22,10.000000,,2013-09-04 00:02:00,
2013-09-03 20:12:00,70.0,69.0,-100.00,WSW,242,3.0,5.0,98,0.00,,,1.22,10.000000,,2013-09-04 00:12:00,
2013-09-03 20:22:00,70.0,69.0,-100.00,WSW,242,3.0,5.0,98,0.00,,,1.22,10.000000,,2013-09-04 00:22:00,
2013-09-03 20:52:00,67.0,66.0,-100.00,NNW,328,0.0,4.0,98,0.00,,,1.22,1.000000,,2013-09-04 00:52:00,
2013-09-03 21:02:00,67.0,66.0,-100.00,NNW,328,0.0,4.0,98,0.00,,,1.22,1.000000,,2013-09-04 01:02:00,
2013-09-03 21:12:00,67.0,66.0,-100.00,NNW,328,0.0,4.0,98,0.00,,,1.22,1.000000,,2013-09-04 01:12:00,
2013-09-03 21:22:00,67.0,66.0,-100.00,NNW,328,0.0,4.0,98,0.00,,,1.22,1.000000,,2013-09-04 01:22:00,
2013-09-03 21:53:00,65.0,64.0,-100.00,NNW,343,0.0,2.0,98,0.00,,,1.22,0.000000,,2013-09-04 01:53:00,
2013-09-03 22:02:00,65.0,64.0,-100.00,NNW,343,0.0,2.0,98,0.00,,,1.22,0.000000,,2013-09-04 02:02:00,
2013-09-03 22:11:00,65.0,64.0,-100.00,NNW,343,0.0,2.0,98,0.00,,,1.22,0.000000,,2013-09-04 02:11:00,
2013-09-03 22:22:00,65.0,64.0,-100.00,NNW,343,0.0,2.0,98,0.00,,,1.22,0.000000,,2013-09-04 02:22:00,
2013-09-03 22:52:00,63.0,62.0,-100.00,NNW,331,1.0,4.0,98,0.00,,,1.22,0.000000,,2013-09-04 02:52:00,
2013-09-03 23:03:00,63.0,62.0,-100.00,NNW,331,1.0,4.0,98,0.00,,,1.22,0.000000,,2013-09-04 03:03:00,
2013-09-03 23:12:00,63.0,62.0,-100.00,NNW,331,1.0,4.0,98,0.00,,,1.22,0.000000,,2013-09-04 03:12:00,
2013-09-03 23:22:00,63.0,62.0,-100.00,NNW,331,1.0,4.0,98,0.00,,,1.22,0.000000,,2013-09-04 03:22:00,
2013-09-03 23:55:00,63.0,62.0,-100.00,WNW,296,0.0,5.0,98,0.00,,,1.22,1.000000,,2013-09-04 03:55:00,